Springfield, IL

7:52 PM CDT on March 30, 2017 (GMT -0500)
Capital

Weather History for KSPI - June, 2013

Change the Weather History Date:

Thursday, June 6, 2013

  Actual Average Record
Temperature  
Mean Temperature 68 °F 70 °F  
Max Temperature 76 °F 81 °F 99 °F (1933)
Min Temperature 59 °F 59 °F 40 °F (1894)
Degree Days  
Heating Degree Days 0 1  
Month to date heating degree days 12 6  
Since 1 June heating degree days 12 6  
Since 1 July heating degree days 5369 5476  
Cooling Degree Days 3 6  
Month to date cooling degree days 11 33  
Year to date cooling degree days 137 137  
Since 1 June cooling degree days 11 33  
Growing Degree Days 16 (Base 50)    
Moisture  
Dew Point 63 °F    
Average Humidity 84    
Maximum Humidity 100    
Minimum Humidity 68    
Precipitation  
Precipitation T in 0.16 in 1.85 in (1918)
Month to date precipitation 0.08 0.93  
Year to date precipitation 25.10 14.94  
Snow  
Snow 0.00 in 0.00 in 0.00 in ()
Month to date snowfall 0.0 0.0  
Since 1 June snowfall 0.0 0.0  
Since 1 July snowfall 33.1 20.9  
Snow Depth 0.00 in    
Sea Level Pressure  
Sea Level Pressure 29.85 in    
Wind  
Wind Speed 8 mph (NNW)    
Max Wind Speed 13 mph    
Max Gust Speed 16 mph    
Visibility 10 miles    
Events      
T = Trace of Precipitation, MM = Missing Value Source: NWS Daily Summary

Daily Weather History Graph

Daily Weather History Graph

Search for Another Location

Airport or City:

Trip Planner

Search our weather history database for the weather conditions in past years. The results will help you decide how hot, cold, wet, or windy it might be!

Date:

Astronomy

Jun. 06, 2013 Rise Set
Actual Time 5:30 AM CDT 8:24 PM CDT
Civil Twilight 4:58 AM CDT 8:56 PM CDT
Nautical Twilight 4:17 AM CDT 9:37 PM CDT
Astronomical Twilight 3:30 AM CDT 10:24 PM CDT
Moon 4:12 AM CDT (6/6) 6:46 PM CDT (6/6)
Length of Visible Light 15h 58m
Length of Day
14h 53m
Waning Crescent, 3% of the Moon is Illuminated
Jun 6
Waning Crescent
Jun 8
New
Jun 16
First Quarter
Jun 23
Full
Jun 29
Last Quarter

Hourly Weather History & Observations

Time (CDT) Temp. Dew Point Humidity Pressure Visibility Wind Dir Wind Speed Gust Speed Precip Events Conditions
12:52 AM 68.0 °F 66.0 °F 93% 29.86 in 10.0 mi North 9.2 mph - N/A   Scattered Clouds
1:52 AM 66.0 °F 66.0 °F 100% 29.84 in 10.0 mi NNW 8.1 mph - N/A   Clear
2:52 AM 64.0 °F 63.0 °F 96% 29.83 in 10.0 mi North 5.8 mph - N/A   Clear
3:52 AM 61.0 °F 61.0 °F 100% 29.83 in 10.0 mi NNW 6.9 mph - N/A   Scattered Clouds
4:52 AM 61.0 °F 60.1 °F 97% 29.84 in 10.0 mi NNW 8.1 mph - 0.00 in   Clear
5:52 AM 59.0 °F 59.0 °F 100% 29.85 in 10.0 mi NNW 6.9 mph - N/A   Clear
6:52 AM 61.0 °F 60.1 °F 97% 29.85 in 10.0 mi NNW 6.9 mph - N/A   Clear
7:52 AM 64.0 °F 61.0 °F 90% 29.86 in 10.0 mi NNW 5.8 mph - N/A   Scattered Clouds
8:52 AM 66.9 °F 61.0 °F 81% 29.85 in 10.0 mi North 9.2 mph - N/A   Mostly Cloudy
9:52 AM 68.0 °F 61.0 °F 78% 29.86 in 10.0 mi NNW 11.5 mph - N/A   Clear
10:52 AM 71.1 °F 62.1 °F 73% 29.85 in 10.0 mi North 10.4 mph - N/A   Scattered Clouds
11:52 AM 73.9 °F 62.1 °F 66% 29.85 in 10.0 mi North 9.2 mph - N/A   Scattered Clouds
12:52 PM 73.9 °F 63.0 °F 68% 29.86 in 10.0 mi NW 10.4 mph - N/A   Overcast
1:52 PM 73.0 °F 63.0 °F 71% 29.85 in 10.0 mi NW 9.2 mph - N/A   Mostly Cloudy
2:52 PM 73.9 °F 64.0 °F 71% 29.86 in 10.0 mi NW 11.5 mph - N/A   Overcast
3:52 PM 73.9 °F 64.0 °F 71% 29.86 in 10.0 mi NNW 10.4 mph - N/A   Mostly Cloudy
4:52 PM 73.9 °F 64.9 °F 73% 29.85 in 10.0 mi North 9.2 mph - N/A   Scattered Clouds
5:52 PM 73.0 °F 64.9 °F 76% 29.85 in 10.0 mi North 6.9 mph - N/A   Mostly Cloudy
6:52 PM 72.0 °F 64.0 °F 76% 29.84 in 10.0 mi North 4.6 mph - N/A   Mostly Cloudy
7:52 PM 71.1 °F 64.9 °F 81% 29.85 in 10.0 mi NE 5.8 mph - N/A   Mostly Cloudy
8:52 PM 66.9 °F 64.0 °F 90% 29.85 in 10.0 mi North 4.6 mph - N/A   Clear
9:52 PM 64.9 °F 61.0 °F 87% 29.88 in 10.0 mi NNW 3.5 mph - N/A   Clear
10:52 PM 63.0 °F 62.1 °F 97% 29.88 in 10.0 mi NW 5.8 mph - N/A   Clear
11:52 PM 62.1 °F 62.1 °F 100% 29.88 in 10.0 mi NNW 6.9 mph - N/A   Clear